User: anonymous   Login
Location: Unspecified
(0.0000°N, 0.0000°E)
Time: 17:50:03
(UTC+00:00)
Language:

COSMOS 2482 - Orbit

View from above orbital plane
View from above orbital plane
View from above satellite
View from above satellite

Ground track
Ground track

The orbit data is extracted from the following two-line orbital elements,

1 39057U 13001A   24104.83298835  .00000028  00000-0  12966-3 0  9993
2 39057  82.5033 354.5574 0027384 319.9309  39.9750 12.42954918510024
Epoch (UTC): 13 April 2024 19:59:30
Eccentricity: 0.0027384
inclination: 82.5033°
perigee height: 1472 km
apogee height: 1515 km
right ascension of ascending node: 354.5574°
argument of perigee: 319.9309°
revolutions per day: 12.42954918
mean anomaly at epoch: 39.9750°
orbit number at epoch: 51002

The dashed part of the orbit path shows where the satellite is in the earth's shadow,  

DLR